Location: *
(43.4667°N, 11.6833°E)
Time: 08:47:48
(UTC+00:00)

Cosmos 1844 Rocket - Pass Details

Date: 19 July 2019
Orbit: 823 x 846 km, 71.0° (Epoch: 21 August)

Event Time Altitude Azimuth Distance (km) Brightness Sun altitude
Rises 21:32:59 0° 329° (NNW) 3,414 7.4 -21.3°
Reaches altitude 10° 21:35:32 10° 322° (NW) 2,476 6.2 -21.5°
Maximum altitude 21:40:51 42° 253° (WSW) 1,186 3.5 -21.9°
Enters shadow 21:42:53 31° 208° (SSW) 1,447 3.6 -22.0°
